Astoria, OR

8:57 PM PDT on July 23, 2017 (GMT -0700)
Astoria Regional

Weather History for KAST - March, 2014

Change the Weather History Date:

Sunday, March 2, 2014

  Actual Average Record
Temperature  
Mean Temperature 48 °F 45 °F  
Max Temperature 53 °F 53 °F 70 °F (1986)
Min Temperature 42 °F 38 °F 24 °F (1896)
Degree Days  
Heating Degree Days 17 20  
Month to date heating degree days 36 40  
Since 1 July heating degree days 3465 3382  
Cooling Degree Days 0 0  
Month to date cooling degree days 0 0  
Year to date cooling degree days 0 0  
Moisture  
Dew Point 46 °F    
Average Humidity 90    
Maximum Humidity 96    
Minimum Humidity 83    
Precipitation  
Precipitation 0.57 in 0.26 in 1.86 in (1910)
Month to date precipitation 0.58 0.53  
Year to date precipitation 14.34 17.92  
Sea Level Pressure  
Sea Level Pressure 29.65 in    
Wind  
Wind Speed 14 mph (SSW)    
Max Wind Speed 33 mph    
Max Gust Speed 50 mph    
Visibility 6 miles    
Events Rain    
T = Trace of Precipitation, MM = Missing Value Source: NWS Daily Summary

Daily Weather History Graph

Daily Weather History Graph

Search for Another Location

Airport or City:

Trip Planner

Search our weather history database for the weather conditions in past years. The results will help you decide how hot, cold, wet, or windy it might be!

Date:

Astronomy

Mar. 02, 2014 Rise Set
Actual Time 6:52 AM PST 6:03 PM PST
Civil Twilight 6:22 AM PST 6:33 PM PST
Nautical Twilight 5:47 AM PST 7:08 PM PST
Astronomical Twilight 5:13 AM PST 7:43 PM PST
Moon 7:20 AM PST (3/2) 8:15 PM PST (3/2)
Length of Visible Light 12h 11m
Length of Day
11h 10m
Waxing Crescent, 3% of the Moon is Illuminated
Mar 2
Waxing Crescent
Mar 8
First Quarter
Mar 16
Full
Mar 23
Last Quarter
Mar 30
New

Hourly Weather History & Observations

Time (PST) Temp. Windchill Dew Point Humidity Pressure Visibility Wind Dir Wind Speed Gust Speed Precip Events Conditions
12:55 AM 46.9 °F - 45.0 °F 93% 29.70 in 9.0 mi SW 6.9 mph - 0.00 in   Overcast
1:09 AM 46.9 °F - 45.0 °F 93% 29.70 in 8.0 mi SSW 6.9 mph - N/A   Overcast
1:17 AM 46.9 °F - 45.0 °F 93% 29.70 in 6.0 mi SW 6.9 mph - 0.00 in Rain Light Rain
1:41 AM 46.9 °F - 45.0 °F 93% 29.70 in 5.0 mi SW 6.9 mph - 0.00 in   Overcast
1:55 AM 46.9 °F - 45.0 °F 93% 29.71 in 7.0 mi SW 8.1 mph - 0.00 in Rain Light Rain
2:08 AM 46.9 °F - 45.0 °F 93% 29.71 in 4.0 mi SW 5.8 mph - 0.00 in Rain Light Rain
2:55 AM 46.9 °F - 45.0 °F 93% 29.71 in 5.0 mi WSW 6.9 mph - 0.01 in   Overcast
3:55 AM 46.9 °F - 45.0 °F 93% 29.69 in 3.0 mi SSW 5.8 mph - 0.01 in Rain Light Rain
4:43 AM 44.1 °F 40.1 °F 41.0 °F 89% 29.68 in 10.0 mi East 6.9 mph - 0.00 in   Overcast
4:55 AM 44.1 °F 40.1 °F 41.0 °F 89% 29.68 in 10.0 mi East 6.9 mph - 0.00 in   Overcast
4:58 AM 43.0 °F 41.3 °F 41.0 °F 93% 29.68 in 10.0 mi Variable 3.5 mph - N/A   Overcast
5:48 AM 43.0 °F 39.5 °F 39.9 °F 89% 29.67 in 10.0 mi East 5.8 mph - 0.00 in   Overcast
5:55 AM 43.0 °F 38.8 °F 39.9 °F 89% 29.67 in 10.0 mi East 6.9 mph - 0.00 in   Overcast
6:12 AM 43.0 °F 39.5 °F 41.0 °F 93% 29.66 in 10.0 mi East 5.8 mph - N/A   Overcast
6:55 AM 43.0 °F 39.5 °F 39.9 °F 89% 29.65 in 10.0 mi East 5.8 mph - N/A   Overcast
7:55 AM 43.0 °F 40.3 °F 39.9 °F 89% 29.64 in 7.0 mi East 4.6 mph - 0.02 in Rain Light Rain
8:31 AM 43.0 °F 38.8 °F 41.0 °F 93% 29.64 in 1.8 mi East 6.9 mph - 0.03 in Rain Light Rain
8:55 AM 43.0 °F 37.7 °F 41.0 °F 93% 29.63 in 2.5 mi East 9.2 mph - 0.09 in Rain Light Rain
9:03 AM 43.0 °F 38.2 °F 41.0 °F 93% 29.63 in 4.0 mi East 8.1 mph - 0.02 in Rain Light Rain
9:19 AM 44.1 °F 39.0 °F 41.0 °F 89% 29.63 in 2.5 mi East 9.2 mph - 0.07 in Rain Rain
9:28 AM 44.1 °F 39.0 °F 41.0 °F 89% 29.62 in 4.0 mi East 9.2 mph - 0.09 in Rain Light Rain
9:55 AM 44.1 °F 40.1 °F 42.1 °F 93% 29.62 in 3.0 mi East 6.9 mph - 0.18 in Rain Rain
10:21 AM 44.1 °F - 42.1 °F 93% 29.62 in 7.0 mi Calm Calm - 0.06 in Rain Light Rain
10:44 AM 50.0 °F - 46.9 °F 89% 29.62 in 6.0 mi South 16.1 mph 31.1 mph 0.09 in Rain Light Rain
10:55 AM 51.1 °F - 46.9 °F 86% 29.61 in 10.0 mi SSW 17.3 mph 26.5 mph 0.10 in Rain Light Rain
11:09 AM 52.0 °F - 46.9 °F 83% 29.61 in 10.0 mi South 19.6 mph 28.8 mph 0.00 in Rain Light Rain
11:28 AM 51.1 °F - 46.9 °F 86% 29.60 in 5.0 mi SSW 19.6 mph 36.8 mph 0.00 in Rain Light Rain
11:51 AM 51.8 °F - 48.2 °F 88% 29.60 in 10.0 mi SSW 23.0 mph 32.2 mph 0.01 in Rain Light Rain
11:55 AM 52.0 °F - 48.0 °F 86% 29.60 in 10.0 mi SSW 20.7 mph 35.7 mph 0.01 in Rain Light Rain
12:19 PM 52.0 °F - 48.0 °F 86% 29.60 in 8.0 mi SSW 21.9 mph 36.8 mph 0.00 in Rain Light Rain
12:31 PM 51.1 °F - 48.0 °F 89% 29.60 in 7.0 mi SSW 24.2 mph 36.8 mph 0.01 in Rain Light Rain
12:55 PM 51.1 °F - 48.0 °F 89% 29.60 in 6.0 mi SSW 19.6 mph 32.2 mph 0.01 in Rain Light Rain
1:07 PM 51.1 °F - 46.9 °F 86% 29.59 in 5.0 mi SSW 20.7 mph 34.5 mph 0.00 in Rain Light Rain
1:18 PM 51.1 °F - 46.9 °F 86% 29.58 in 6.0 mi SSW 15.0 mph 32.2 mph 0.01 in Rain Light Rain
1:37 PM 51.1 °F - 48.0 °F 89% 29.57 in 3.0 mi SSW 16.1 mph 28.8 mph 0.02 in Rain Light Rain
1:50 PM 51.8 °F - 48.2 °F 88% 29.56 in 2.5 mi South 12.7 mph 26.5 mph 0.02 in Rain Light Rain
1:55 PM 51.1 °F - 48.0 °F 89% 29.56 in 2.0 mi South 16.1 mph 25.3 mph 0.04 in Rain Rain
2:04 PM 51.1 °F - 48.0 °F 89% 29.55 in 3.0 mi South 15.0 mph 26.5 mph 0.01 in Rain Light Rain
2:55 PM 52.0 °F - 48.9 °F 89% 29.55 in 3.0 mi South 23.0 mph 39.1 mph 0.01 in Rain Light Rain
3:04 PM 53.1 °F - 48.9 °F 86% 29.55 in 5.0 mi South 23.0 mph 40.3 mph 0.00 in Rain Light Rain
3:41 PM 53.1 °F - 48.9 °F 86% 29.55 in 8.0 mi South 23.0 mph 42.6 mph 0.01 in Rain Light Rain
3:55 PM 53.1 °F - 48.9 °F 86% 29.55 in 3.0 mi South 19.6 mph 47.2 mph 0.01 in Rain Light Rain
4:04 PM 52.0 °F - 48.9 °F 89% 29.54 in 2.0 mi South 23.0 mph 35.7 mph 0.01 in Rain Light Rain
4:24 PM 52.0 °F - 48.9 °F 89% 29.54 in 1.5 mi South 28.8 mph 44.9 mph 0.01 in Rain Light Rain
4:30 PM 52.0 °F - 48.9 °F 89% 29.54 in 3.0 mi SSW 32.2 mph 48.3 mph 0.02 in Rain Light Rain
4:39 PM 52.0 °F - 48.0 °F 86% 29.54 in 8.0 mi SSW 28.8 mph 46.0 mph 0.02 in   Overcast
4:55 PM 52.0 °F - 48.0 °F 86% 29.55 in 4.0 mi South 28.8 mph 40.3 mph 0.04 in Rain Light Rain
5:55 PM 52.0 °F - 46.9 °F 83% 29.56 in 8.0 mi South 26.5 mph 43.7 mph 0.01 in   Overcast
6:42 PM 51.1 °F - 46.9 °F 86% 29.60 in 5.0 mi SSW 24.2 mph 40.3 mph 0.00 in Rain Light Rain
6:52 PM 50.0 °F - 48.2 °F 94% 29.61 in 2.5 mi SSW 21.9 mph 35.7 mph 0.00 in Rain Light Rain
6:55 PM 50.0 °F - 46.9 °F 89% 29.61 in 3.0 mi SSW 26.5 mph 35.7 mph 0.00 in Rain Light Rain
7:08 PM 50.0 °F - 46.9 °F 89% 29.62 in 2.0 mi SSW 19.6 mph 43.7 mph 0.00 in Rain Light Rain
7:39 PM 50.0 °F - 46.9 °F 89% 29.66 in 3.0 mi WSW 23.0 mph 33.4 mph 0.03 in Rain Light Rain
7:48 PM 48.9 °F - 46.0 °F 90% 29.68 in 10.0 mi WSW 18.4 mph 28.8 mph 0.03 in   Overcast
7:55 PM 48.9 °F - 46.0 °F 90% 29.69 in 10.0 mi WSW 16.1 mph - 0.03 in   Overcast
8:06 PM 48.9 °F - 46.0 °F 90% 29.70 in 10.0 mi WSW 13.8 mph 20.7 mph N/A   Overcast
8:38 PM 48.9 °F - 46.0 °F 90% 29.73 in 10.0 mi SW 12.7 mph 20.7 mph N/A   Overcast
8:45 PM 48.9 °F - 46.0 °F 90% 29.73 in 10.0 mi SW 12.7 mph - N/A   Overcast
8:55 PM 48.9 °F - 46.0 °F 90% 29.74 in 10.0 mi SW 10.4 mph 20.7 mph N/A   Overcast
9:08 PM 48.9 °F - 46.0 °F 90% 29.75 in 10.0 mi SSW 11.5 mph 19.6 mph N/A   Overcast
9:22 PM 48.9 °F - 46.0 °F 90% 29.76 in 10.0 mi SW 11.5 mph - N/A   Overcast
9:45 PM 48.9 °F - 46.0 °F 90% 29.76 in 10.0 mi SSW 12.7 mph - N/A   Overcast
9:55 PM 48.9 °F - 46.0 °F 90% 29.77 in 10.0 mi SW 11.5 mph - N/A   Overcast
10:18 PM 48.9 °F - 46.0 °F 90% 29.77 in 10.0 mi SW 12.7 mph - 0.00 in   Overcast
10:45 PM 48.9 °F - 46.0 °F 90% 29.77 in 10.0 mi SW 16.1 mph 23.0 mph 0.00 in   Overcast
10:55 PM 48.9 °F - 46.0 °F 90% 29.78 in 10.0 mi SW 17.3 mph 25.3 mph 0.00 in   Overcast
11:55 PM 50.0 °F - 46.9 °F 89% 29.78 in 8.0 mi SW 18.4 mph 27.6 mph 0.00 in Rain Light Rain